#timestamp,LO_Frequency,Hit 
1502143215.3,286047030.5,N
1502143235.2,286047030.3,N
1502143255.9,286047028.5,N
1502143275.7,286047029.0,N
1502143295.6,286047031.2,N
1502143315.4,286047029.7,N
1502143335.2,286047029.4,N
1502143355.1,286047029.9,N
1502143356.0,286047029.9,N
1502143375.8,286047031.2,N
1502143395.6,286047031.6,N
1502143415.5,286047030.6,N
1502143435.3,286047030.7,N
1502143455.1,286047032.8,N
1502143475.8,286047030.7,N
1502143495.7,286047032.0,N
1502143515.5,286047030.2,N
1502143535.3,286047030.3,N
1502143555.2,286047031.5,N
1502143575.9,286047032.3,N
1502143595.7,286047032.8,N
1502143615.6,286047034.7,N
1502143635.4,286047034.7,N
1502143655.2,286047033.9,N
1502143675.1,286047036.2,N
1502143676.0,286047036.2,N
1502143695.8,286047034.3,N
1502143715.6,286047032.3,N
1502143735.5,286047032.1,N
1502143755.3,286047030.5,N
1502143775.1,286047032.5,N
1502143795.8,286047034.4,N
1502143815.7,286047034.7,N
1502143835.5,286047031.7,N
1502143855.3,286047035.9,N
1502143875.2,286047036.4,N
1502143895.0,286047033.4,N
1502143895.9,286047033.4,N
1502143915.7,286047033.6,N
1502143935.6,286047034.2,N
1502143955.4,286047033.7,N
1502143975.2,286047035.9,N
1502143995.1,286047033.9,N
1502143996.0,286047033.9,N
1502144015.8,286047033.5,N
1502144035.6,286047035.1,N
1502144055.5,286047035.3,N
1502144075.3,286047033.5,N
1502144095.1,286047034.5,N
1502144115.9,286047034.5,N
1502144135.7,286047034.3,N
1502144155.5,286047034.7,N
1502144175.3,286047033.7,N
1502144195.2,286047033.5,N
1502144215.0,286047033.3,N
1502144215.9,286047033.3,N
1502144235.7,286047038.0,N
1502144255.6,286047035.7,N
1502144275.4,286047034.6,N
1502144295.2,286047031.7,N
1502144315.1,286047034.3,N
1502144316.0,286047034.3,N
1502144335.8,286047034.6,N
1502144355.6,286047036.2,N
1502144375.5,286047033.3,N
1502144395.3,286047038.0,N
1502144415.1,286047035.1,N
1502144435.9,286047034.5,N
1502144455.7,286047034.0,N
1502144475.5,286047033.7,N
1502144495.3,286047036.0,N
1502144515.2,286047033.9,N
1502144535.0,286047035.7,N
1502144535.9,286047035.7,N
1502144555.7,286047035.3,N
1502144575.6,286047033.8,N
1502144595.4,286047036.4,N
1502144615.2,286047033.4,N
1502144635.1,286047034.9,N
1502144636.0,286047034.9,N
1502144655.8,286047036.8,N
1502144675.6,286047035.5,N
1502144695.5,286047036.0,N
1502144715.3,286047036.6,N
1502144735.1,286047035.5,N
1502144755.9,286047036.1,N
1502144775.7,286047033.5,N
1502144795.5,286047033.6,N
1502144815.4,286047033.9,N
1502144835.2,286047031.7,N
1502144855.0,286047030.1,N
1502144855.9,286047030.1,N
1502144875.8,286047032.5,N
1502144895.6,286047033.4,N
1502144915.4,286047034.0,N
1502144935.2,286047036.2,N
1502144955.1,286047035.2,N
1502144956.0,286047035.2,N
1502144975.8,286047039.1,N
1502144995.6,286047036.0,N
1502145015.5,286047035.7,N
1502145035.3,286047033.3,N
1502145055.1,286047035.9,N
1502145075.9,286047035.7,N
1502145095.7,286047033.4,N
1502145115.5,286047036.0,N
1502145135.4,286047034.0,N
1502145155.2,286047035.9,N
1502145175.0,286047033.6,N
1502145175.9,286047033.6,N
1502145195.8,286047034.2,N
1502145215.6,286047033.4,N
1502145235.4,286047034.3,N
1502145255.2,286047037.4,N
1502145275.1,286047035.9,N
1502145276.0,286047035.9,N
1502145295.8,286047037.7,N
1502145315.6,286047037.1,N
1502145335.5,286047035.3,N
1502145355.3,286047036.7,N
1502145375.1,286047037.1,N
1502145395.9,286047039.5,N
1502145415.7,286047035.5,N
1502145435.5,286047037.9,N
1502145455.4,286047037.1,N
1502145475.2,286047037.2,N
1502145495.0,286047038.8,N
1502145495.9,286047038.8,N
1502145515.8,286047036.7,N
1502145535.6,286047039.6,N
1502145555.4,286047038.6,N
1502145575.2,286047039.6,N
1502145595.1,286047038.2,N
1502145596.0,286047038.2,N
1502145615.8,286047040.9,N
1502145635.6,286047038.4,N
1502145655.5,286047038.8,N
1502145675.3,286047041.0,N
1502145695.1,286047040.6,N
1502145715.9,286047041.0,N
1502145735.7,286047038.4,N
1502145755.5,286047041.2,N
1502145775.4,286047038.3,N
1502145795.2,286047038.7,N
1502145815.0,286047038.4,N
1502145815.9,286047038.4,N
1502145835.8,286047038.2,N
1502145855.6,286047036.5,N
1502145875.4,286047038.6,N
1502145895.3,286047039.2,N
1502145915.1,286047039.6,N
1502145916.0,286047039.6,N
1502145935.8,286047037.2,N
1502145955.6,286047039.0,N
1502145975.5,286047039.6,N
1502145995.3,286047035.5,N
1502146015.1,286047039.2,N
1502146035.9,286047037.6,N
1502146055.7,286047037.8,N
1502146075.5,286047036.8,N
1502146095.4,286047037.4,N
1502146115.2,286047038.1,N
1502146135.0,286047039.3,N
1502146135.9,286047039.3,N
1502146155.8,286047039.4,N
1502146175.6,286047037.5,N
1502146195.4,286047038.3,N
1502146215.3,286047037.3,N
1502146235.1,286047037.7,N
1502146236.0,286047037.7,N
1502146255.8,286047037.7,N
1502146275.6,286047036.7,N
1502146295.5,286047037.1,N
1502146315.3,286047036.9,N
1502146335.1,286047041.2,N
1502146355.9,286047038.3,N
1502146375.7,286047039.3,N
1502146395.5,286047038.4,N
1502146415.4,286047039.4,N
1502146435.2,286047038.9,N
1502146455.0,286047037.1,N
1502146455.9,286047037.1,N
1502146475.8,286047035.4,N
1502146495.6,286047037.5,N
1502146515.4,286047037.1,N
1502146535.2,286047034.9,N
1502146555.1,286047037.6,N
1502146556.0,286047037.6,N
1502146575.8,286047040.8,N
1502146595.6,286047040.8,N
1502146615.5,286047039.3,N
1502146635.3,286047040.9,N
1502146655.1,286047038.1,N
1502146675.9,286047041.2,N
1502146695.7,286047039.2,N
1502146715.5,286047039.0,N
1502146735.4,286047040.5,N
1502146755.2,286047040.9,N
1502146775.0,286047040.7,N
1502146775.9,286047040.7,N
1502146795.8,286047042.4,N
